Weather History for Mosby, MO

Change the Weather History Date:

Thursday, October 18, 2012

  Actual Average (KMKC) Record (KMKC)
Temperature  
Mean Temperature 52 °F -  
Max Temperature 55 °F 65 °F 82 °F (2005)
Min Temperature 48 °F 46 °F 33 °F (1999)
Degree Days  
Heating Degree Days 12    
Growing Degree Days 2 (Base 50)    
Moisture  
Dew Point 30 °F    
Average Humidity 45    
Maximum Humidity 76    
Minimum Humidity 33    
Precipitation  
Precipitation 0.00 in - - ()
Sea Level Pressure  
Sea Level Pressure 29.63 in    
Wind  
Wind Speed 12 mph ()    
Max Wind Speed 28 mph    
Max Gust Speed 43 mph    
Visibility 10.0 miles    
Events Rain    
Averages and records for this station are not official NWS values.
T = Trace of Precipitation, MM = Missing Value Source: Averaged Metar Reports

Daily Weather History Graph

Daily Weather History Graph

Search for Another Location

Airport:

Trip Planner

Search our weather history database for the weather conditions in past years. The results will help you decide how hot, cold, wet, or windy it might be!

Date:

Astronomy

Oct. 18, 2012 Rise Set
Actual Time 7:30 AM CDT 6:33 PM CDT
Civil Twilight 7:03 AM CDT 7:00 PM CDT
Nautical Twilight 6:32 AM CDT 7:31 PM CDT
Astronomical Twilight 6:01 AM CDT 8:02 PM CDT
Moon 11:12 AM CDT (10/18) 9:09 PM CDT (10/18)
Length of Visible Light 11h 56m
Length of Day
11h 02m
Waxing Crescent, 14% of the Moon is Illuminated
Oct 18
Waxing Crescent
Oct 21
First Quarter
Oct 29
Full
Nov 6
Last Quarter
Nov 13
New

Hourly Weather History & Observations

Time (CDT) Temp. Dew Point Humidity Pressure Visibility Wind Dir Wind Speed Gust Speed Precip Events Conditions
12:15 AM 51.8 °F 26.6 °F 38% 29.63 in 10.0 mi WSW 5.8 mph - N/A   Clear
12:35 AM 51.8 °F 26.6 °F 38% 29.62 in 10.0 mi WSW 6.9 mph - N/A   Clear
12:55 AM 51.8 °F 26.6 °F 38% 29.63 in 10.0 mi WSW 8.1 mph - N/A   Unknown
1:35 AM 51.8 °F 26.6 °F 38% 29.64 in 10.0 mi WSW 6.9 mph - N/A   Clear
1:55 AM 50.0 °F 28.4 °F 43% 29.64 in 10.0 mi WSW 6.9 mph - N/A   Clear
2:15 AM 50.0 °F 28.4 °F 43% 29.64 in 10.0 mi West 8.1 mph - N/A   Clear
2:35 AM 50.0 °F 28.4 °F 43% 29.64 in 10.0 mi West 9.2 mph - N/A   Clear
2:55 AM 50.0 °F 26.6 °F 40% 29.64 in 10.0 mi West 8.1 mph - N/A   Clear
3:15 AM 50.0 °F 28.4 °F 43% 29.64 in 10.0 mi West 8.1 mph - N/A   Clear
3:35 AM 50.0 °F 28.4 °F 43% 29.63 in 10.0 mi West 10.4 mph - N/A   Clear
3:55 AM 50.0 °F 28.4 °F 43% 29.63 in 10.0 mi West 9.2 mph - N/A   Clear
4:15 AM 50.0 °F 28.4 °F 43% 29.63 in 10.0 mi West 9.2 mph 17.3 mph N/A   Clear
4:35 AM 50.0 °F 28.4 °F 43% 29.63 in 10.0 mi West 11.5 mph 16.1 mph N/A   Clear
4:55 AM 50.0 °F 28.4 °F 43% 29.63 in 10.0 mi West 11.5 mph - N/A   Clear
5:15 AM 50.0 °F 28.4 °F 43% 29.63 in 10.0 mi West 9.2 mph 18.4 mph N/A   Clear
5:35 AM 50.0 °F 26.6 °F 40% 29.63 in 10.0 mi West 11.5 mph 17.3 mph N/A   Clear
5:55 AM 50.0 °F 26.6 °F 40% 29.63 in 10.0 mi West 11.5 mph - N/A   Clear
6:15 AM 50.0 °F 26.6 °F 40% 29.64 in 10.0 mi WSW 13.8 mph 19.6 mph N/A   Clear
6:35 AM 50.0 °F 26.6 °F 40% 29.64 in 10.0 mi West 12.7 mph 20.7 mph N/A   Clear
6:55 AM 50.0 °F 26.6 °F 40% 29.64 in 10.0 mi West 15.0 mph 21.9 mph N/A   Clear
7:15 AM 50.0 °F 26.6 °F 40% 29.64 in 10.0 mi West 12.7 mph 18.4 mph N/A   Clear
7:35 AM 50.0 °F 26.6 °F 40% 29.63 in 10.0 mi West 12.7 mph 23.0 mph N/A   Clear
7:55 AM 50.0 °F 26.6 °F 40% 29.63 in 10.0 mi West 15.0 mph 21.9 mph N/A   Scattered Clouds
8:15 AM 50.0 °F 26.6 °F 40% 29.63 in 10.0 mi West 12.7 mph 23.0 mph N/A   Scattered Clouds
8:35 AM 50.0 °F 26.6 °F 40% 29.63 in 10.0 mi West 15.0 mph 24.2 mph N/A   Clear
9:15 AM 51.8 °F 26.6 °F 38% 29.62 in 10.0 mi West 20.7 mph 27.6 mph N/A   Scattered Clouds
9:35 AM 51.8 °F 26.6 °F 38% 29.62 in 10.0 mi West 16.1 mph 23.0 mph N/A   Scattered Clouds
9:55 AM 51.8 °F 26.6 °F 38% 29.62 in 10.0 mi West 18.4 mph 28.8 mph N/A   Clear
10:15 AM 53.6 °F 26.6 °F 35% 29.62 in 10.0 mi West 18.4 mph 26.5 mph N/A   Scattered Clouds
10:35 AM 53.6 °F 26.6 °F 35% 29.62 in 10.0 mi West 18.4 mph 31.1 mph N/A   Clear
11:15 AM 53.6 °F 26.6 °F 35% 29.61 in 10.0 mi West 16.1 mph 27.6 mph N/A   Clear
11:35 AM 53.6 °F 26.6 °F 35% 29.61 in 10.0 mi West 19.6 mph 32.2 mph N/A   Scattered Clouds
11:55 AM 55.4 °F 26.6 °F 33% 29.61 in 10.0 mi West 15.0 mph 34.5 mph N/A   Scattered Clouds
12:15 PM 55.4 °F 26.6 °F 33% 29.61 in 10.0 mi WNW 27.6 mph 38.0 mph N/A   Scattered Clouds
12:35 PM 55.4 °F 28.4 °F 36% 29.62 in 10.0 mi WNW 27.6 mph 36.8 mph N/A   Scattered Clouds
12:55 PM 55.4 °F 28.4 °F 36% 29.62 in 10.0 mi West 11.5 mph 33.4 mph N/A   Mostly Cloudy
1:15 PM 55.4 °F 28.4 °F 36% 29.61 in 10.0 mi WNW 24.2 mph 33.4 mph N/A   Overcast
1:35 PM 55.4 °F 26.6 °F 33% 29.61 in 10.0 mi West 19.6 mph 31.1 mph N/A   Overcast
1:55 PM 55.4 °F 28.4 °F 36% 29.61 in 10.0 mi West 18.4 mph 28.8 mph N/A   Overcast
2:15 PM 55.4 °F 28.4 °F 36% 29.61 in 10.0 mi West 19.6 mph 29.9 mph N/A   Overcast
2:35 PM 55.4 °F 28.4 °F 36% 29.61 in 10.0 mi WNW 18.4 mph 25.3 mph N/A   Overcast
2:55 PM 55.4 °F 30.2 °F 38% 29.61 in 10.0 mi West 20.7 mph 27.6 mph N/A   Overcast
3:15 PM 55.4 °F 30.2 °F 38% 29.61 in 10.0 mi West 13.8 mph 33.4 mph N/A   Overcast
3:35 PM 53.6 °F 32.0 °F 44% 29.63 in 10.0 mi WNW 23.0 mph 41.4 mph N/A   Overcast
3:55 PM 51.8 °F 33.8 °F 50% 29.64 in 10.0 mi West 21.9 mph 42.6 mph N/A Rain Light Rain
4:15 PM 51.8 °F 33.8 °F 50% 29.64 in 10.0 mi WNW 23.0 mph 31.1 mph N/A   Scattered Clouds
4:35 PM 51.8 °F 33.8 °F 50% 29.64 in 10.0 mi West 10.4 mph 29.9 mph N/A   Light Drizzle
5:15 PM 50.0 °F 37.4 °F 62% 29.65 in 10.0 mi West 12.7 mph 25.3 mph N/A Rain Rain
5:35 PM 50.0 °F 37.4 °F 62% 29.65 in 10.0 mi West 11.5 mph 21.9 mph N/A   Light Drizzle
5:55 PM 50.0 °F 37.4 °F 62% 29.64 in 10.0 mi West 9.2 mph - N/A Rain Light Rain
6:15 PM 50.0 °F 35.6 °F 58% 29.63 in 10.0 mi West 12.7 mph 21.9 mph N/A   Light Drizzle
6:35 PM 51.8 °F 35.6 °F 54% 29.63 in 10.0 mi West 13.8 mph 24.2 mph N/A Rain Light Rain
6:55 PM 51.8 °F 35.6 °F 54% 29.63 in 10.0 mi West 17.3 mph 25.3 mph N/A   Overcast
7:15 PM 51.8 °F 35.6 °F 54% 29.63 in 10.0 mi West 21.9 mph 32.2 mph N/A   Overcast
7:35 PM 51.8 °F 37.4 °F 58% 29.64 in 10.0 mi West 16.1 mph 40.3 mph N/A   Overcast
7:55 PM 51.8 °F 37.4 °F 58% 29.63 in 10.0 mi West 16.1 mph 25.3 mph N/A   Overcast
8:15 PM 51.8 °F 35.6 °F 54% 29.63 in 10.0 mi West 18.4 mph 31.1 mph N/A   Overcast
8:35 PM 51.8 °F 37.4 °F 58% 29.64 in 10.0 mi WNW 20.7 mph 32.2 mph N/A   Overcast
8:55 PM 51.8 °F 37.4 °F 58% 29.64 in 10.0 mi WNW 23.0 mph 36.8 mph N/A   Overcast
9:15 PM 51.8 °F 37.4 °F 58% 29.64 in 10.0 mi WNW 23.0 mph 32.2 mph N/A   Overcast
9:35 PM 50.0 °F 37.4 °F 62% 29.65 in 10.0 mi WNW 20.7 mph 33.4 mph N/A   Overcast
9:55 PM 50.0 °F 37.4 °F 62% 29.65 in 10.0 mi WNW 23.0 mph 31.1 mph N/A   Overcast
10:15 PM 50.0 °F 39.2 °F 66% 29.65 in 10.0 mi West 16.1 mph 28.8 mph N/A Rain Light Rain
10:35 PM 48.2 °F 41.0 °F 76% 29.65 in 10.0 mi WNW 23.0 mph 29.9 mph N/A   Overcast